Tianhui-5 2-02

operational
NORAD ID: 60212 Int'l Des: 2024-126 Owner: GCDX Country: CN
LEOCIRCULARRETROGRADESSO

About Tianhui-5 2-02

Description loading...

Live Position

Loading 3D Globe...

Upcoming Passes

Altitude History

Altitude vs Time

uPlot chart will show altitude changes over time

Two-Line Element Set

1 60212U 24126B 26048.57031806 .00000499 00000-0 60907-4 0 9994
2 60212 97.8213 57.8342 0001763 97.4652 262.6764 14.87589352 88115
Epoch: Feb 17, 2026 • Age: 17 hours

Current Status

Altitude 609.9 km
Velocity 7.55 km/s
Sub-Earth Point -7.97°S, 10.9°W
Launch Date Jul 4, 2024
Age 1.6 years
Type other

Technical Details

Classification Payload
Mass 1000.00 kg
Dry Mass 1000.00 kg
Total Mass 1000.00 kg
Length 2.00 m
Diameter 2.00 m
Span 14.00 m
Shape Box + 2 Pan
Manufacturer DFHZ
Bus Type CAST-2000
Phase Status In Orbit
Owner/State GCDX/CN

Large Constellations

Loading constellations...